#datetime,building,power
2023-11-24T00:00:00,axn,25.30
2023-11-24T00:01:00,axn,25.55
2023-11-24T00:02:00,axn,25.33
2023-11-24T00:03:00,axn,25.83
2023-11-24T00:04:00,axn,25.35
2023-11-24T00:05:00,axn,26.08
2023-11-24T00:06:00,axn,25.50
2023-11-24T00:07:00,axn,25.59
2023-11-24T00:08:00,axn,25.55
2023-11-24T00:09:00,axn,28.17
2023-11-24T00:10:00,axn,30.17
2023-11-24T00:11:00,axn,32.74
2023-11-24T00:12:00,axn,33.10
2023-11-24T00:13:00,axn,33.19
2023-11-24T00:14:00,axn,33.64
2023-11-24T00:15:00,axn,32.35
2023-11-24T00:16:00,axn,32.61
2023-11-24T00:17:00,axn,32.44
2023-11-24T00:18:00,axn,31.63
2023-11-24T00:19:00,axn,31.53
2023-11-24T00:20:00,axn,31.57
2023-11-24T00:21:00,axn,31.19
2023-11-24T00:22:00,axn,31.78
2023-11-24T00:23:00,axn,31.51
2023-11-24T00:24:00,axn,30.49
2023-11-24T00:25:00,axn,30.48
2023-11-24T00:26:00,axn,30.67
2023-11-24T00:27:00,axn,30.38
2023-11-24T00:28:00,axn,30.47
2023-11-24T00:29:00,axn,30.57
2023-11-24T00:30:00,axn,30.07
2023-11-24T00:31:00,axn,29.62
2023-11-24T00:32:00,axn,30.12
2023-11-24T00:33:00,axn,29.73
2023-11-24T00:34:00,axn,29.68
2023-11-24T00:35:00,axn,30.56
2023-11-24T00:36:00,axn,30.57
2023-11-24T00:37:00,axn,30.78
2023-11-24T00:38:00,axn,29.68
2023-11-24T00:39:00,axn,29.74
2023-11-24T00:40:00,axn,29.96
2023-11-24T00:41:00,axn,31.36
2023-11-24T00:42:00,axn,30.73
2023-11-24T00:43:00,axn,31.26
2023-11-24T00:44:00,axn,30.92
2023-11-24T00:45:00,axn,30.66
2023-11-24T00:46:00,axn,31.33
2023-11-24T00:47:00,axn,31.95
2023-11-24T00:48:00,axn,30.73
2023-11-24T00:49:00,axn,32.00
2023-11-24T00:50:00,axn,31.69
2023-11-24T00:51:00,axn,31.00
2023-11-24T00:52:00,axn,32.62
2023-11-24T00:53:00,axn,31.46
2023-11-24T00:54:00,axn,31.67
2023-11-24T00:55:00,axn,31.56
2023-11-24T00:56:00,axn,34.59
2023-11-24T00:57:00,axn,32.96
2023-11-24T00:58:00,axn,32.10
2023-11-24T00:59:00,axn,34.68
2023-11-24T01:00:00,axn,33.08
2023-11-24T01:01:00,axn,32.29
2023-11-24T01:02:00,axn,33.38
2023-11-24T01:03:00,axn,32.56
2023-11-24T01:04:00,axn,32.33
2023-11-24T01:05:00,axn,31.81
2023-11-24T01:06:00,axn,30.12
2023-11-24T01:07:00,axn,30.01
2023-11-24T01:08:00,axn,29.88
2023-11-24T01:09:00,axn,30.20
2023-11-24T01:10:00,axn,29.90
2023-11-24T01:11:00,axn,30.20
2023-11-24T01:12:00,axn,29.95
2023-11-24T01:13:00,axn,29.91
2023-11-24T01:14:00,axn,29.71
2023-11-24T01:15:00,axn,30.64
2023-11-24T01:16:00,axn,30.19
2023-11-24T01:17:00,axn,30.26
2023-11-24T01:18:00,axn,31.65
2023-11-24T01:19:00,axn,29.89
2023-11-24T01:20:00,axn,30.93
2023-11-24T01:21:00,axn,29.98
2023-11-24T01:22:00,axn,30.33
2023-11-24T01:23:00,axn,30.46
2023-11-24T01:24:00,axn,30.44
2023-11-24T01:25:00,axn,30.06
2023-11-24T01:26:00,axn,30.43
2023-11-24T01:27:00,axn,31.39
2023-11-24T01:28:00,axn,31.23
2023-11-24T01:29:00,axn,30.85
2023-11-24T01:30:00,axn,30.50
2023-11-24T01:31:00,axn,30.35
2023-11-24T01:32:00,axn,31.13
2023-11-24T01:33:00,axn,31.13
2023-11-24T01:34:00,axn,30.54
2023-11-24T01:35:00,axn,31.99
2023-11-24T01:36:00,axn,32.10
2023-11-24T01:37:00,axn,32.40
2023-11-24T01:38:00,axn,29.57
2023-11-24T01:39:00,axn,29.70
2023-11-24T01:40:00,axn,29.77
2023-11-24T01:41:00,axn,29.78
2023-11-24T01:42:00,axn,29.31
2023-11-24T01:43:00,axn,29.25
2023-11-24T01:44:00,axn,29.18
2023-11-24T01:45:00,axn,30.05
2023-11-24T01:46:00,axn,29.42
2023-11-24T01:47:00,axn,30.45
2023-11-24T01:48:00,axn,29.61
2023-11-24T01:49:00,axn,29.01
2023-11-24T01:50:00,axn,30.10
2023-11-24T01:51:00,axn,29.90
2023-11-24T01:52:00,axn,29.31
2023-11-24T01:53:00,axn,30.66
2023-11-24T01:54:00,axn,30.58
2023-11-24T01:55:00,axn,29.16
2023-11-24T01:56:00,axn,29.34
2023-11-24T01:57:00,axn,30.46
2023-11-24T01:58:00,axn,30.15
2023-11-24T01:59:00,axn,30.82
2023-11-24T02:00:00,axn,29.55
2023-11-24T02:01:00,axn,29.58
2023-11-24T02:02:00,axn,30.54
2023-11-24T02:03:00,axn,29.62
2023-11-24T02:04:00,axn,29.62
2023-11-24T02:05:00,axn,32.35
2023-11-24T02:06:00,axn,29.75
2023-11-24T02:07:00,axn,30.89
2023-11-24T02:08:00,axn,29.57
2023-11-24T02:09:00,axn,44.38
2023-11-24T02:10:00,axn,45.26
2023-11-24T02:11:00,axn,40.94
2023-11-24T02:12:00,axn,39.29
2023-11-24T02:13:00,axn,39.52
2023-11-24T02:14:00,axn,25.26
2023-11-24T02:15:00,axn,25.47
2023-11-24T02:16:00,axn,24.76
2023-11-24T02:17:00,axn,25.16
2023-11-24T02:18:00,axn,24.86
2023-11-24T02:19:00,axn,25.46
2023-11-24T02:20:00,axn,24.98
2023-11-24T02:21:00,axn,24.86
2023-11-24T02:22:00,axn,24.95
2023-11-24T02:23:00,axn,24.66
2023-11-24T02:24:00,axn,24.60
2023-11-24T02:25:00,axn,24.87
2023-11-24T02:26:00,axn,24.62
2023-11-24T02:27:00,axn,24.55
2023-11-24T02:28:00,axn,24.58
2023-11-24T02:29:00,axn,24.59
2023-11-24T02:30:00,axn,24.58
2023-11-24T02:31:00,axn,24.62
2023-11-24T02:32:00,axn,24.77
2023-11-24T02:33:00,axn,30.58
2023-11-24T02:34:00,axn,30.44
2023-11-24T02:35:00,axn,30.44
2023-11-24T02:36:00,axn,24.58
2023-11-24T02:37:00,axn,24.53
2023-11-24T02:38:00,axn,24.88
2023-11-24T02:39:00,axn,24.88
2023-11-24T02:40:00,axn,24.88
2023-11-24T02:41:00,axn,24.79
2023-11-24T02:42:00,axn,25.05
2023-11-24T02:43:00,axn,25.38
2023-11-24T02:44:00,axn,24.96
2023-11-24T02:45:00,axn,24.94
2023-11-24T02:46:00,axn,24.98
2023-11-24T02:47:00,axn,25.01
2023-11-24T02:48:00,axn,24.97
2023-11-24T02:49:00,axn,25.33
2023-11-24T02:50:00,axn,25.01
2023-11-24T02:51:00,axn,25.08
2023-11-24T02:52:00,axn,27.96
2023-11-24T02:53:00,axn,24.98
2023-11-24T02:54:00,axn,24.90
2023-11-24T02:55:00,axn,24.94
2023-11-24T02:56:00,axn,24.93
2023-11-24T02:57:00,axn,25.00
2023-11-24T02:58:00,axn,25.44
2023-11-24T02:59:00,axn,24.97
2023-11-24T03:00:00,axn,25.38
2023-11-24T03:01:00,axn,25.48
2023-11-24T03:02:00,axn,25.16
2023-11-24T03:03:00,axn,25.07
2023-11-24T03:04:00,axn,25.12
2023-11-24T03:05:00,axn,24.99
2023-11-24T03:06:00,axn,25.04
2023-11-24T03:07:00,axn,25.02
2023-11-24T03:08:00,axn,24.92
2023-11-24T03:09:00,axn,35.52
2023-11-24T03:10:00,axn,35.36
2023-11-24T03:11:00,axn,35.55
2023-11-24T03:12:00,axn,35.13
2023-11-24T03:13:00,axn,25.08
2023-11-24T03:14:00,axn,25.29
2023-11-24T03:15:00,axn,24.92
2023-11-24T03:16:00,axn,24.69
2023-11-24T03:17:00,axn,24.56
2023-11-24T03:18:00,axn,24.60
2023-11-24T03:19:00,axn,24.76
2023-11-24T03:20:00,axn,25.26
2023-11-24T03:21:00,axn,24.69
2023-11-24T03:22:00,axn,24.83
2023-11-24T03:23:00,axn,24.54
2023-11-24T03:24:00,axn,24.61
2023-11-24T03:25:00,axn,24.57
2023-11-24T03:26:00,axn,24.38
2023-11-24T03:27:00,axn,24.42
2023-11-24T03:28:00,axn,24.41
2023-11-24T03:29:00,axn,24.32
2023-11-24T03:30:00,axn,24.31
2023-11-24T03:31:00,axn,24.38
2023-11-24T03:32:00,axn,24.38
2023-11-24T03:33:00,axn,24.38
2023-11-24T03:34:00,axn,24.50
2023-11-24T03:35:00,axn,24.38
2023-11-24T03:36:00,axn,24.43
2023-11-24T03:37:00,axn,24.27
2023-11-24T03:38:00,axn,24.43
2023-11-24T03:39:00,axn,24.44
2023-11-24T03:40:00,axn,24.44
2023-11-24T03:41:00,axn,24.41
2023-11-24T03:42:00,axn,24.51
2023-11-24T03:43:00,axn,24.51
2023-11-24T03:44:00,axn,24.58
2023-11-24T03:45:00,axn,24.61
2023-11-24T03:46:00,axn,24.62
2023-11-24T03:47:00,axn,24.50
2023-11-24T03:48:00,axn,24.49
2023-11-24T03:49:00,axn,24.51
2023-11-24T03:50:00,axn,24.54
2023-11-24T03:51:00,axn,24.49
2023-11-24T03:52:00,axn,24.58
2023-11-24T03:53:00,axn,24.53
2023-11-24T03:54:00,axn,24.53
2023-11-24T03:55:00,axn,24.45
2023-11-24T03:56:00,axn,24.66
2023-11-24T03:57:00,axn,24.54
2023-11-24T03:58:00,axn,24.51
2023-11-24T03:59:00,axn,29.53
2023-11-24T04:00:00,axn,24.37
2023-11-24T04:01:00,axn,24.43
2023-11-24T04:02:00,axn,24.34
2023-11-24T04:03:00,axn,24.22
2023-11-24T04:04:00,axn,24.27
2023-11-24T04:05:00,axn,24.46
2023-11-24T04:06:00,axn,24.29
2023-11-24T04:07:00,axn,24.32
2023-11-24T04:08:00,axn,24.35
2023-11-24T04:09:00,axn,24.43
2023-11-24T04:10:00,axn,24.18
2023-11-24T04:11:00,axn,24.36
2023-11-24T04:12:00,axn,24.47
2023-11-24T04:13:00,axn,24.61
2023-11-24T04:14:00,axn,24.60
2023-11-24T04:15:00,axn,24.56
2023-11-24T04:16:00,axn,24.48
2023-11-24T04:17:00,axn,24.38
2023-11-24T04:18:00,axn,24.27
2023-11-24T04:19:00,axn,28.82
2023-11-24T04:20:00,axn,28.81
2023-11-24T04:21:00,axn,28.80
2023-11-24T04:22:00,axn,24.53
2023-11-24T04:23:00,axn,24.42
2023-11-24T04:24:00,axn,24.30
2023-11-24T04:25:00,axn,24.43
2023-11-24T04:26:00,axn,24.69
2023-11-24T04:27:00,axn,24.39
2023-11-24T04:28:00,axn,24.33
2023-11-24T04:29:00,axn,24.38
2023-11-24T04:30:00,axn,24.29
2023-11-24T04:31:00,axn,24.23
2023-11-24T04:32:00,axn,24.20
2023-11-24T04:33:00,axn,24.06
2023-11-24T04:34:00,axn,24.11
2023-11-24T04:35:00,axn,24.16
2023-11-24T04:36:00,axn,24.48
2023-11-24T04:37:00,axn,24.16
2023-11-24T04:38:00,axn,24.19
2023-11-24T04:39:00,axn,24.35
2023-11-24T04:40:00,axn,24.00
2023-11-24T04:41:00,axn,24.54
2023-11-24T04:42:00,axn,24.50
2023-11-24T04:43:00,axn,24.57
2023-11-24T04:44:00,axn,24.62
2023-11-24T04:45:00,axn,24.61
2023-11-24T04:46:00,axn,24.63
2023-11-24T04:47:00,axn,24.58
2023-11-24T04:48:00,axn,24.45
2023-11-24T04:49:00,axn,24.65
2023-11-24T04:50:00,axn,24.73
2023-11-24T04:51:00,axn,24.82
2023-11-24T04:52:00,axn,24.67
2023-11-24T04:53:00,axn,24.77
2023-11-24T04:54:00,axn,24.61
2023-11-24T04:55:00,axn,24.68
2023-11-24T04:56:00,axn,24.66
2023-11-24T04:57:00,axn,24.58
2023-11-24T04:58:00,axn,24.49
2023-11-24T04:59:00,axn,24.85
2023-11-24T05:00:00,axn,24.66
2023-11-24T05:01:00,axn,27.33
2023-11-24T05:02:00,axn,28.97
2023-11-24T05:03:00,axn,29.26
2023-11-24T05:04:00,axn,29.43
2023-11-24T05:05:00,axn,28.96
2023-11-24T05:06:00,axn,31.82
2023-11-24T05:07:00,axn,32.08
2023-11-24T05:08:00,axn,29.31
2023-11-24T05:09:00,axn,29.48
2023-11-24T05:10:00,axn,29.33
2023-11-24T05:11:00,axn,29.74
2023-11-24T05:12:00,axn,29.09
2023-11-24T05:13:00,axn,28.87
2023-11-24T05:14:00,axn,29.09
2023-11-24T05:15:00,axn,29.19
2023-11-24T05:16:00,axn,29.21
2023-11-24T05:17:00,axn,28.97
2023-11-24T05:18:00,axn,29.24
2023-11-24T05:19:00,axn,28.88
2023-11-24T05:20:00,axn,28.82
2023-11-24T05:21:00,axn,29.26
2023-11-24T05:22:00,axn,28.83
2023-11-24T05:23:00,axn,29.16
2023-11-24T05:24:00,axn,28.72
2023-11-24T05:25:00,axn,28.64
2023-11-24T05:26:00,axn,28.57
2023-11-24T05:27:00,axn,28.47
2023-11-24T05:28:00,axn,28.52
2023-11-24T05:29:00,axn,28.60
2023-11-24T05:30:00,axn,28.80
2023-11-24T05:31:00,axn,29.69
2023-11-24T05:32:00,axn,29.74
2023-11-24T05:33:00,axn,29.81
2023-11-24T05:34:00,axn,29.98
2023-11-24T05:35:00,axn,29.89
2023-11-24T05:36:00,axn,29.61
2023-11-24T05:37:00,axn,29.79
2023-11-24T05:38:00,axn,29.79
2023-11-24T05:39:00,axn,29.69
2023-11-24T05:40:00,axn,42.12
2023-11-24T05:41:00,axn,29.56
2023-11-24T05:42:00,axn,29.89
2023-11-24T05:43:00,axn,30.27
2023-11-24T05:44:00,axn,29.66
2023-11-24T05:45:00,axn,29.91
2023-11-24T05:46:00,axn,29.63
2023-11-24T05:47:00,axn,29.51
2023-11-24T05:48:00,axn,29.31
2023-11-24T05:49:00,axn,29.36
2023-11-24T05:50:00,axn,29.71
2023-11-24T05:51:00,axn,29.82
2023-11-24T05:52:00,axn,30.03
2023-11-24T05:53:00,axn,30.01
2023-11-24T05:54:00,axn,30.20
2023-11-24T05:55:00,axn,30.46
2023-11-24T05:56:00,axn,30.39
2023-11-24T05:57:00,axn,30.37
2023-11-24T05:58:00,axn,30.43
2023-11-24T05:59:00,axn,30.50
2023-11-24T06:00:00,axn,30.39
2023-11-24T06:01:00,axn,30.34
2023-11-24T06:02:00,axn,30.62
2023-11-24T06:03:00,axn,30.35
2023-11-24T06:04:00,axn,29.46
2023-11-24T06:05:00,axn,29.77
2023-11-24T06:06:00,axn,30.24
2023-11-24T06:07:00,axn,30.41
2023-11-24T06:08:00,axn,30.15
2023-11-24T06:09:00,axn,29.65
2023-11-24T06:10:00,axn,29.88
2023-11-24T06:11:00,axn,29.51
2023-11-24T06:12:00,axn,29.48
2023-11-24T06:13:00,axn,29.38
2023-11-24T06:14:00,axn,30.03
2023-11-24T06:15:00,axn,29.29
2023-11-24T06:16:00,axn,29.31
2023-11-24T06:17:00,axn,29.23
2023-11-24T06:18:00,axn,29.42
2023-11-24T06:19:00,axn,29.53
2023-11-24T06:20:00,axn,29.05
2023-11-24T06:21:00,axn,30.21
2023-11-24T06:22:00,axn,29.23
2023-11-24T06:23:00,axn,29.42
2023-11-24T06:24:00,axn,28.91
2023-11-24T06:25:00,axn,28.84
2023-11-24T06:26:00,axn,29.15
2023-11-24T06:27:00,axn,29.27
2023-11-24T06:28:00,axn,28.69
2023-11-24T06:29:00,axn,28.73
2023-11-24T06:30:00,axn,29.15
2023-11-24T06:31:00,axn,29.48
2023-11-24T06:32:00,axn,29.19
2023-11-24T06:33:00,axn,29.16
2023-11-24T06:34:00,axn,29.23
2023-11-24T06:35:00,axn,28.86
2023-11-24T06:36:00,axn,28.63
2023-11-24T06:37:00,axn,28.79
2023-11-24T06:38:00,axn,28.91
2023-11-24T06:39:00,axn,28.67
2023-11-24T06:40:00,axn,28.82
2023-11-24T06:41:00,axn,28.82
2023-11-24T06:42:00,axn,29.11
2023-11-24T06:43:00,axn,29.06
2023-11-24T06:44:00,axn,28.95
2023-11-24T06:45:00,axn,28.82
2023-11-24T06:46:00,axn,29.08
2023-11-24T06:47:00,axn,29.23
2023-11-24T06:48:00,axn,28.96
2023-11-24T06:49:00,axn,28.96
2023-11-24T06:50:00,axn,29.20
2023-11-24T06:51:00,axn,29.00
2023-11-24T06:52:00,axn,28.52
2023-11-24T06:53:00,axn,28.54
2023-11-24T06:54:00,axn,28.86
2023-11-24T06:55:00,axn,28.86
2023-11-24T06:56:00,axn,28.37
2023-11-24T06:57:00,axn,29.07
2023-11-24T06:58:00,axn,28.62
2023-11-24T06:59:00,axn,28.51
2023-11-24T07:00:00,axn,28.24
2023-11-24T07:01:00,axn,28.97
2023-11-24T07:02:00,axn,30.15
2023-11-24T07:03:00,axn,30.14
2023-11-24T07:04:00,axn,29.03
2023-11-24T07:05:00,axn,29.98
2023-11-24T07:06:00,axn,29.67
2023-11-24T07:07:00,axn,30.11
2023-11-24T07:08:00,axn,29.73
2023-11-24T07:09:00,axn,29.86
2023-11-24T07:10:00,axn,30.01
2023-11-24T07:11:00,axn,29.64
2023-11-24T07:12:00,axn,30.43
2023-11-24T07:13:00,axn,29.92
2023-11-24T07:14:00,axn,29.84
2023-11-24T07:15:00,axn,31.81
2023-11-24T07:16:00,axn,29.74
2023-11-24T07:17:00,axn,29.89
2023-11-24T07:18:00,axn,30.94
2023-11-24T07:19:00,axn,31.25
2023-11-24T07:20:00,axn,30.35
2023-11-24T07:21:00,axn,30.64
2023-11-24T07:22:00,axn,31.79
2023-11-24T07:23:00,axn,34.53
2023-11-24T07:24:00,axn,30.84
2023-11-24T07:25:00,axn,31.34
2023-11-24T07:26:00,axn,31.55
2023-11-24T07:27:00,axn,31.29
2023-11-24T07:28:00,axn,32.32
2023-11-24T07:29:00,axn,32.46
2023-11-24T07:30:00,axn,32.72
2023-11-24T07:31:00,axn,33.36
2023-11-24T07:32:00,axn,32.99
2023-11-24T07:33:00,axn,33.83
2023-11-24T07:34:00,axn,35.89
2023-11-24T07:35:00,axn,32.87
2023-11-24T07:36:00,axn,35.44
2023-11-24T07:37:00,axn,33.63
2023-11-24T07:38:00,axn,34.35
2023-11-24T07:39:00,axn,34.15
2023-11-24T07:40:00,axn,34.13
2023-11-24T07:41:00,axn,32.98
2023-11-24T07:42:00,axn,36.09
2023-11-24T07:43:00,axn,35.93
2023-11-24T07:44:00,axn,35.80
2023-11-24T07:45:00,axn,33.84
2023-11-24T07:46:00,axn,36.38
2023-11-24T07:47:00,axn,33.55
2023-11-24T07:48:00,axn,34.54
2023-11-24T07:49:00,axn,48.68
2023-11-24T07:50:00,axn,49.99
2023-11-24T07:51:00,axn,50.02
2023-11-24T07:52:00,axn,47.55
2023-11-24T07:53:00,axn,47.41
2023-11-24T07:54:00,axn,33.82
2023-11-24T07:55:00,axn,35.17
2023-11-24T07:56:00,axn,35.47
2023-11-24T07:57:00,axn,35.67
2023-11-24T07:58:00,axn,34.05
2023-11-24T07:59:00,axn,44.23
2023-11-24T08:00:00,axn,44.38
2023-11-24T08:01:00,axn,46.73
2023-11-24T08:02:00,axn,49.95
2023-11-24T08:03:00,axn,40.13
2023-11-24T08:04:00,axn,41.36
2023-11-24T08:05:00,axn,39.23
2023-11-24T08:06:00,axn,40.48
2023-11-24T08:07:00,axn,40.82
2023-11-24T08:08:00,axn,41.50
2023-11-24T08:09:00,axn,42.43
2023-11-24T08:10:00,axn,40.95
2023-11-24T08:11:00,axn,42.27
2023-11-24T08:12:00,axn,40.47
2023-11-24T08:13:00,axn,39.50
2023-11-24T08:14:00,axn,39.62
2023-11-24T08:15:00,axn,42.44
2023-11-24T08:16:00,axn,39.55
2023-11-24T08:17:00,axn,41.37
2023-11-24T08:18:00,axn,40.45
2023-11-24T08:19:00,axn,39.93
2023-11-24T08:20:00,axn,41.16
2023-11-24T08:21:00,axn,40.78
2023-11-24T08:22:00,axn,43.95
2023-11-24T08:23:00,axn,40.14
2023-11-24T08:24:00,axn,42.84
2023-11-24T08:25:00,axn,41.61
2023-11-24T08:26:00,axn,40.23
2023-11-24T08:27:00,axn,40.84
2023-11-24T08:28:00,axn,40.52
2023-11-24T08:29:00,axn,42.63
2023-11-24T08:30:00,axn,43.37
2023-11-24T08:31:00,axn,42.52
2023-11-24T08:32:00,axn,40.97
2023-11-24T08:33:00,axn,42.34
2023-11-24T08:34:00,axn,41.60
2023-11-24T08:35:00,axn,40.21
2023-11-24T08:36:00,axn,43.23
2023-11-24T08:37:00,axn,40.52
2023-11-24T08:38:00,axn,42.90
2023-11-24T08:39:00,axn,40.46
2023-11-24T08:40:00,axn,40.25
2023-11-24T08:41:00,axn,43.23
2023-11-24T08:42:00,axn,42.61
2023-11-24T08:43:00,axn,40.58
2023-11-24T08:44:00,axn,42.36
2023-11-24T08:45:00,axn,41.23
2023-11-24T08:46:00,axn,40.95
2023-11-24T08:47:00,axn,41.03
2023-11-24T08:48:00,axn,40.56
2023-11-24T08:49:00,axn,41.35
2023-11-24T08:50:00,axn,42.41
2023-11-24T08:51:00,axn,41.36
2023-11-24T08:52:00,axn,42.94
2023-11-24T08:53:00,axn,42.65
2023-11-24T08:54:00,axn,40.35
2023-11-24T08:55:00,axn,41.03
2023-11-24T08:56:00,axn,41.47
2023-11-24T08:57:00,axn,42.94
2023-11-24T08:58:00,axn,42.25
2023-11-24T08:59:00,axn,42.50
2023-11-24T09:00:00,axn,41.55
2023-11-24T09:01:00,axn,40.18
2023-11-24T09:02:00,axn,40.17
2023-11-24T09:03:00,axn,41.29
2023-11-24T09:04:00,axn,42.34
2023-11-24T09:05:00,axn,40.09
2023-11-24T09:06:00,axn,40.80
2023-11-24T09:07:00,axn,40.11
2023-11-24T09:08:00,axn,42.38
2023-11-24T09:09:00,axn,42.22
2023-11-24T09:10:00,axn,41.01
2023-11-24T09:11:00,axn,42.60
2023-11-24T09:12:00,axn,40.40
2023-11-24T09:13:00,axn,42.48
2023-11-24T09:14:00,axn,40.06
2023-11-24T09:15:00,axn,43.18
2023-11-24T09:16:00,axn,40.93
2023-11-24T09:17:00,axn,41.01
2023-11-24T09:18:00,axn,42.19
2023-11-24T09:19:00,axn,39.29
2023-11-24T09:20:00,axn,40.23
2023-11-24T09:21:00,axn,40.34
2023-11-24T09:22:00,axn,40.47
2023-11-24T09:23:00,axn,41.53
2023-11-24T09:24:00,axn,39.39
2023-11-24T09:25:00,axn,40.10
2023-11-24T09:26:00,axn,42.21
2023-11-24T09:27:00,axn,40.65
2023-11-24T09:28:00,axn,44.57
2023-11-24T09:29:00,axn,42.16
2023-11-24T09:30:00,axn,41.06
2023-11-24T09:31:00,axn,40.54
2023-11-24T09:32:00,axn,42.00
2023-11-24T09:33:00,axn,42.01
2023-11-24T09:34:00,axn,40.27
2023-11-24T09:35:00,axn,40.44
2023-11-24T09:36:00,axn,42.68
2023-11-24T09:37:00,axn,41.14
2023-11-24T09:38:00,axn,42.80
2023-11-24T09:39:00,axn,41.18
2023-11-24T09:40:00,axn,43.36
2023-11-24T09:41:00,axn,42.34
2023-11-24T09:42:00,axn,41.04
2023-11-24T09:43:00,axn,42.24
2023-11-24T09:44:00,axn,42.30
2023-11-24T09:45:00,axn,43.11
2023-11-24T09:46:00,axn,40.91
2023-11-24T09:47:00,axn,40.05
2023-11-24T09:48:00,axn,40.80
2023-11-24T09:49:00,axn,46.40
2023-11-24T09:50:00,axn,44.42
2023-11-24T09:51:00,axn,39.82
2023-11-24T09:52:00,axn,40.10
2023-11-24T09:53:00,axn,42.23
2023-11-24T09:54:00,axn,40.38
2023-11-24T09:55:00,axn,40.98
2023-11-24T09:56:00,axn,42.43
2023-11-24T09:57:00,axn,40.98
2023-11-24T09:58:00,axn,42.79
2023-11-24T09:59:00,axn,40.46
2023-11-24T10:00:00,axn,41.91
2023-11-24T10:01:00,axn,40.61
2023-11-24T10:02:00,axn,41.18
2023-11-24T10:03:00,axn,44.00
2023-11-24T10:04:00,axn,43.42
2023-11-24T10:05:00,axn,43.86
2023-11-24T10:06:00,axn,41.73
2023-11-24T10:07:00,axn,44.59
2023-11-24T10:08:00,axn,42.04
2023-11-24T10:09:00,axn,41.54
2023-11-24T10:10:00,axn,43.21
2023-11-24T10:11:00,axn,42.89
2023-11-24T10:12:00,axn,40.91
2023-11-24T10:13:00,axn,40.93
2023-11-24T10:14:00,axn,40.81
2023-11-24T10:15:00,axn,42.07
2023-11-24T10:16:00,axn,41.58
2023-11-24T10:17:00,axn,42.09
2023-11-24T10:18:00,axn,43.37
2023-11-24T10:19:00,axn,41.86
2023-11-24T10:20:00,axn,43.44
2023-11-24T10:21:00,axn,41.32
2023-11-24T10:22:00,axn,43.65
2023-11-24T10:23:00,axn,40.83
2023-11-24T10:24:00,axn,43.30
2023-11-24T10:25:00,axn,44.09
2023-11-24T10:26:00,axn,43.60
2023-11-24T10:27:00,axn,41.06
2023-11-24T10:28:00,axn,43.05
2023-11-24T10:29:00,axn,40.85
2023-11-24T10:30:00,axn,44.38
2023-11-24T10:31:00,axn,47.07
2023-11-24T10:32:00,axn,49.91
2023-11-24T10:33:00,axn,47.42
2023-11-24T10:34:00,axn,42.80
2023-11-24T10:35:00,axn,40.48
2023-11-24T10:36:00,axn,41.65
2023-11-24T10:37:00,axn,42.91
2023-11-24T10:38:00,axn,43.48
2023-11-24T10:39:00,axn,42.92
2023-11-24T10:40:00,axn,43.32
2023-11-24T10:41:00,axn,40.57
2023-11-24T10:42:00,axn,42.69
2023-11-24T10:43:00,axn,40.67
2023-11-24T10:44:00,axn,41.30
2023-11-24T10:45:00,axn,42.00
2023-11-24T10:46:00,axn,40.64
2023-11-24T10:47:00,axn,43.27
2023-11-24T10:48:00,axn,41.45
2023-11-24T10:49:00,axn,40.19
2023-11-24T10:50:00,axn,42.68
2023-11-24T10:51:00,axn,40.29
2023-11-24T10:52:00,axn,42.60
2023-11-24T10:53:00,axn,40.49
2023-11-24T10:54:00,axn,41.61
2023-11-24T10:55:00,axn,42.90
2023-11-24T10:56:00,axn,42.22
2023-11-24T10:57:00,axn,41.87
2023-11-24T10:58:00,axn,44.29
2023-11-24T10:59:00,axn,43.67
2023-11-24T11:00:00,axn,41.19
2023-11-24T11:01:00,axn,44.26
2023-11-24T11:02:00,axn,43.18
2023-11-24T11:03:00,axn,43.66
2023-11-24T11:04:00,axn,42.01
2023-11-24T11:05:00,axn,40.56
2023-11-24T11:06:00,axn,44.12
2023-11-24T11:07:00,axn,41.11
2023-11-24T11:08:00,axn,49.22
2023-11-24T11:09:00,axn,41.32
2023-11-24T11:10:00,axn,46.17
2023-11-24T11:11:00,axn,43.37
2023-11-24T11:12:00,axn,43.09
2023-11-24T11:13:00,axn,40.85
2023-11-24T11:14:00,axn,41.62
2023-11-24T11:15:00,axn,43.85
2023-11-24T11:16:00,axn,43.17
2023-11-24T11:17:00,axn,41.01
2023-11-24T11:18:00,axn,41.82
2023-11-24T11:19:00,axn,43.13
2023-11-24T11:20:00,axn,42.05
2023-11-24T11:21:00,axn,43.33
2023-11-24T11:22:00,axn,41.43
2023-11-24T11:23:00,axn,41.14
2023-11-24T11:24:00,axn,43.30
2023-11-24T11:25:00,axn,41.10
2023-11-24T11:26:00,axn,43.19
2023-11-24T11:27:00,axn,42.39
2023-11-24T11:28:00,axn,42.16
2023-11-24T11:29:00,axn,41.85
2023-11-24T11:30:00,axn,42.56
2023-11-24T11:31:00,axn,41.65
2023-11-24T11:32:00,axn,43.72
2023-11-24T11:33:00,axn,41.61
2023-11-24T11:34:00,axn,41.44
2023-11-24T11:35:00,axn,41.48
2023-11-24T11:36:00,axn,43.35
2023-11-24T11:37:00,axn,43.67
2023-11-24T11:38:00,axn,43.67
2023-11-24T11:39:00,axn,41.67
2023-11-24T11:40:00,axn,43.24
2023-11-24T11:41:00,axn,43.16
2023-11-24T11:42:00,axn,44.20
2023-11-24T11:43:00,axn,42.55
2023-11-24T11:44:00,axn,43.59
2023-11-24T11:45:00,axn,43.48
2023-11-24T11:46:00,axn,42.04
2023-11-24T11:47:00,axn,43.51
2023-11-24T11:48:00,axn,46.32
2023-11-24T11:49:00,axn,40.94
2023-11-24T11:50:00,axn,41.07
2023-11-24T11:51:00,axn,41.21
2023-11-24T11:52:00,axn,41.75
2023-11-24T11:53:00,axn,42.92
2023-11-24T11:54:00,axn,41.07
2023-11-24T11:55:00,axn,41.08
2023-11-24T11:56:00,axn,41.20
2023-11-24T11:57:00,axn,41.37
2023-11-24T11:58:00,axn,41.52
2023-11-24T11:59:00,axn,51.44
2023-11-24T12:00:00,axn,51.64
2023-11-24T12:01:00,axn,51.80
2023-11-24T12:02:00,axn,54.70
2023-11-24T12:03:00,axn,42.23
2023-11-24T12:04:00,axn,42.47
2023-11-24T12:05:00,axn,44.82
2023-11-24T12:06:00,axn,41.83
2023-11-24T12:07:00,axn,44.23
2023-11-24T12:08:00,axn,44.47
2023-11-24T12:09:00,axn,41.64
2023-11-24T12:10:00,axn,44.04
2023-11-24T12:11:00,axn,43.71
2023-11-24T12:12:00,axn,44.11
2023-11-24T12:13:00,axn,42.40
2023-11-24T12:14:00,axn,41.25
2023-11-24T12:15:00,axn,41.05
2023-11-24T12:16:00,axn,40.83
2023-11-24T12:17:00,axn,43.32
2023-11-24T12:18:00,axn,44.33
2023-11-24T12:19:00,axn,41.20
2023-11-24T12:20:00,axn,43.03
2023-11-24T12:21:00,axn,43.48
2023-11-24T12:22:00,axn,41.02
2023-11-24T12:23:00,axn,42.97
2023-11-24T12:24:00,axn,41.16
2023-11-24T12:25:00,axn,43.19
2023-11-24T12:26:00,axn,40.89
2023-11-24T12:27:00,axn,43.28
2023-11-24T12:28:00,axn,43.70
2023-11-24T12:29:00,axn,57.92
2023-11-24T12:30:00,axn,56.98
2023-11-24T12:31:00,axn,54.59
2023-11-24T12:32:00,axn,54.46
2023-11-24T12:33:00,axn,56.97
2023-11-24T12:34:00,axn,40.40
2023-11-24T12:35:00,axn,40.96
2023-11-24T12:36:00,axn,42.33
2023-11-24T12:37:00,axn,40.62
2023-11-24T12:38:00,axn,41.52
2023-11-24T12:39:00,axn,40.56
2023-11-24T12:40:00,axn,43.19
2023-11-24T12:41:00,axn,40.63
2023-11-24T12:42:00,axn,41.82
2023-11-24T12:43:00,axn,41.17
2023-11-24T12:44:00,axn,42.90
2023-11-24T12:45:00,axn,40.71
2023-11-24T12:46:00,axn,42.55
2023-11-24T12:47:00,axn,40.50
2023-11-24T12:48:00,axn,40.71
2023-11-24T12:49:00,axn,42.79
2023-11-24T12:50:00,axn,43.20
2023-11-24T12:51:00,axn,40.64
2023-11-24T12:52:00,axn,40.75
2023-11-24T12:53:00,axn,42.58
2023-11-24T12:54:00,axn,41.21
2023-11-24T12:55:00,axn,42.54
2023-11-24T12:56:00,axn,42.47
2023-11-24T12:57:00,axn,40.18
2023-11-24T12:58:00,axn,42.70
2023-11-24T12:59:00,axn,41.25
2023-11-24T13:00:00,axn,41.92
2023-11-24T13:01:00,axn,43.80
2023-11-24T13:02:00,axn,43.72
2023-11-24T13:03:00,axn,40.61
2023-11-24T13:04:00,axn,42.57
2023-11-24T13:05:00,axn,42.74
2023-11-24T13:06:00,axn,41.84
2023-11-24T13:07:00,axn,42.03
2023-11-24T13:08:00,axn,42.70
2023-11-24T13:09:00,axn,41.83
2023-11-24T13:10:00,axn,41.12
2023-11-24T13:11:00,axn,43.00
2023-11-24T13:12:00,axn,41.66
2023-11-24T13:13:00,axn,41.24
2023-11-24T13:14:00,axn,42.31
2023-11-24T13:15:00,axn,44.18
2023-11-24T13:16:00,axn,43.36
2023-11-24T13:17:00,axn,43.03
2023-11-24T13:18:00,axn,42.93